Weather in Talakan

Russia / Amur Oblast     50°15′50″N   130°16′00″E
temp.,
°C
wind,
m/s
gust,
m/s
humid.,
%
clouds,
%
prec.,
mm/h
press.,
hPa
HPBL,
m
18 may, tue
tue1800:00+11se2273100 0.3 99724
03:00+11s3879100 0.4 997158
06:00+12wsw49796 0.0 998365
09:00+16w455613 0.0 999820
12:00+19w5742100 0.0 9981695
15:00+16ssw4564100 0.3 999738
18:00+12wnw3694100 4.9 1001403
21:00+11ene2789100 7.7 1001370
19 may, wed
wed1900:00+10sw1192100 0.2 100316
03:00+8ene11942 0.2 100311
06:00+9nne01905 0.0 100460
09:00+13nnw227132 0.0 1004767
12:00+16nw344399 0.0 10051538
15:00+17nnw2230100 0.0 10041880
18:00+16e1139100 0.0 1004597
21:00+11e35515 0.0 100367
20 may, thu
thu2000:00+11ese41354100 0.0 999285
03:00+13s2965100 0.1 997287
06:00+13ssw3108785 1.9 998378
09:00+15wnw456774 1.9 1001942
12:00+17nw45420 0.0 10031269
15:00+19nw4531100 0.0 10051579
18:00+17nnw3439100 0.0 1005718
21:00+11nne34555 0.0 100773
21 may, fri
fri2100:00+9ene22570 0.0 100716
03:00+8e226331 0.0 100724
06:00+9e22625 0.0 100884
09:00+16ne22395 0.0 1008543
12:00+20nne333139 0.0 10061024
15:00+22n33310 0.0 10051303
18:00+20n45413 0.0 1004624
21:00+14n5115887 0.0 1005295
22 may, sat
sat2200:00+10n3664100 0.0 1006126
03:00+10nne348083 0.3 100482
06:00+12ne127410 0.1 100589
09:00+18ese455377 0.4 1004497
12:00+24s474345 0.6 10021209
15:00+27ssw683811 0.6 10001652
18:00+26s8114431 0.0 9991037
21:00+19sse51456100 0.1 1000564